DW0333 Tranby-Lier NO current weather conditions

sailwx.info

Wind from 176 at 3 knots

Air temperature 0.6° C
Dewpoint -0.3° C

Last reported at 2015-Jan-28 03:32 UTC.
Time now 2015-Jan-28 04:15 UTC

Location: N 59°50' E 010°17'.
View on Google Maps.

See reports from other nearby stations

  
Tides and Currents Weather Stations Pressure Air Temp Water Temp Dewpoint Dewpoint Depression Visibility Wind Speed Wind Dir Waves Ship Positions
date/time (UTC)wind fromknots sea level pressurealtimeterstation pressurevisibilityair tempwater tempwave heightnotes
2015-Jan-28 03:32 176 3 0.6
2015-Jan-28 03:17 136 4 0.6
2015-Jan-28 03:01 135 5 -0.0
2015-Jan-28 02:46 167 6 -0.0
2015-Jan-28 02:30 185 4 -0.0
2015-Jan-28 02:16 170 4 -0.0
2015-Jan-28 02:01 167 4 -0.0
2015-Jan-28 01:46 169 2 -0.0
2015-Jan-28 01:30 154 3 -0.0
2015-Jan-28 01:14 127 3 -0.0
2015-Jan-28 00:59 067 3 -0.0
2015-Jan-28 00:44 079 3 -0.0
2015-Jan-28 00:29 048 2 -0.6
2015-Jan-28 00:13 042 2 -0.0
2015-Jan-27 23:58 071 1 -0.6
2015-Jan-27 23:43 148 0 -0.6
2015-Jan-27 23:28 091 1 -0.6
2015-Jan-27 23:13 110 1 -0.6
2015-Jan-27 22:58 092 1 -0.6
2015-Jan-27 22:42 141 2 -0.6
2015-Jan-27 22:27 127 1 -0.6
2015-Jan-27 22:12 109 0 -0.6
2015-Jan-27 21:57 112 1 -0.6
2015-Jan-27 21:42 133 2 -1.1
2015-Jan-27 21:26 160 4 -1.1
2015-Jan-27 21:10 142 1 -1.1
2015-Jan-27 20:56 135 2 -1.1
2015-Jan-27 20:41 189 2 -1.1
2015-Jan-27 20:25 121 2 -1.1
2015-Jan-27 20:11 127 3 -0.6
2015-Jan-27 19:56 116 3 -0.6
2015-Jan-27 19:39 117 3 -1.1
2015-Jan-27 19:24 123 3 -1.1
2015-Jan-27 19:09 142 4 -1.1
2015-Jan-27 18:54 155 4 -1.1
2015-Jan-27 18:38 185 3 -1.1
2015-Jan-27 18:23 183 3 -1.1
2015-Jan-27 18:08 217 2 -0.6
2015-Jan-27 17:53 137 1 -0.6
2015-Jan-27 17:38 153 3 -0.6
2015-Jan-27 17:23 163 2 -0.6
2015-Jan-27 17:08 190 1 -0.6
2015-Jan-27 16:52 148 1 -0.6
2015-Jan-27 16:37 133 1 -0.6
2015-Jan-27 16:22 129 2 -0.6
2015-Jan-27 16:07 138 1 -0.6
2015-Jan-27 15:51 127 1 -0.0
2015-Jan-27 15:36 129 0 -0.0
2015-Jan-27 15:21 113 0 -0.0
2015-Jan-27 15:06 192 0 -0.0
2015-Jan-27 14:51 207 0 -0.0
2015-Jan-27 14:36 167 0 0.6
2015-Jan-27 14:21 171 0 0.6
2015-Jan-27 14:04 183 0 1.1
2015-Jan-27 13:49 212 1 1.1
2015-Jan-27 13:34 217 2 1.7
2015-Jan-27 13:19 212 1 1.7
2015-Jan-27 13:04 201 0 2.2
2015-Jan-27 12:49 238 1 2.2
2015-Jan-27 12:33 212 1 2.2
2015-Jan-27 12:18 256 3 2.8
2015-Jan-27 12:03 261 1 2.2
2015-Jan-27 11:48 291 1 2.2
2015-Jan-27 11:33 298 3 1.7
2015-Jan-27 11:18 287 3 1.7
2015-Jan-27 11:02 298 3 1.1
2015-Jan-27 10:47 277 2 0.6
2015-Jan-27 10:32 299 3 0.6
2015-Jan-27 10:16 290 3 0.6
2015-Jan-27 10:01 280 2 -0.0
2015-Jan-27 09:45 304 3 -0.6
2015-Jan-27 09:31 297 4 -1.1
2015-Jan-27 09:15 327 4 -1.1
2015-Jan-27 09:01 290 3 -2.2
2015-Jan-27 08:46 313 3 -2.2
2015-Jan-27 08:29 310 5 -2.8
2015-Jan-27 08:17 305 4 -2.8
2015-Jan-27 07:59 290 4 -2.8
2015-Jan-27 07:44 303 4 -2.8
2015-Jan-27 07:28 280 4 -2.8
2015-Jan-27 07:13 302 3 -2.8
2015-Jan-27 06:58 354 3 -2.8
2015-Jan-27 05:41 337 2 -2.2
2015-Jan-27 05:28 319 3 -2.2
2015-Jan-27 05:12 319 3 -2.2
2015-Jan-27 04:57 316 4 -2.2
2015-Jan-27 04:41 329 4 -1.7
2015-Jan-27 04:25 349 4 -1.7
2015-Jan-27 04:11 317 5 -1.7
2015-Jan-27 03:56 005 4 -1.7
2015-Jan-27 03:41 321 4 -1.7
2015-Jan-27 03:26 326 2 -1.7
2015-Jan-27 03:09 005 1 -1.7
2015-Jan-27 02:54 296 2 -1.7
2015-Jan-27 02:39 330 3 -1.7
2015-Jan-27 02:24 342 4 -1.7
2015-Jan-27 02:09 348 4 -1.7
2015-Jan-27 01:54 261 4 -1.7
2015-Jan-27 01:38 340 4 -1.7
2015-Jan-27 01:23 331 3 -1.7
2015-Jan-27 01:08 307 3 -1.7
2015-Jan-27 00:53 330 4 -1.7
2015-Jan-27 00:38 313 3 -1.7
2015-Jan-27 00:23 036 4 -1.7
2015-Jan-27 00:07 334 3 -1.7
2015-Jan-26 23:52 327 3 -1.7
2015-Jan-26 23:37 323 3 -1.7
2015-Jan-26 23:21 338 4 -1.1
2015-Jan-26 23:05 345 4 -1.1
2015-Jan-26 22:51 001 4 -1.1
2015-Jan-26 22:35 350 4 -1.1
2015-Jan-26 22:20 325 5 -1.1
2015-Jan-26 22:06 004 4 -1.1
2015-Jan-26 21:49 005 4 -1.1
2015-Jan-26 21:34 322 3 -1.7
2015-Jan-26 21:19 329 2 -1.7
2015-Jan-26 21:04 002 2 -1.7
2015-Jan-26 20:49 323 1 -1.7
2015-Jan-26 20:34 349 1 -1.7
2015-Jan-26 20:18 339 2 -1.1
2015-Jan-26 20:03 354 2 -1.1
2015-Jan-26 19:48 342 1 -1.1
2015-Jan-26 19:33 329 2 -1.1
2015-Jan-26 19:18 352 0 -0.6
2015-Jan-26 19:03 325 0 -0.6
2015-Jan-26 18:48 009 0 -0.0
2015-Jan-26 18:32 352 1 -0.0
2015-Jan-26 18:17 313 1 -0.0
2015-Jan-26 18:02 354 1 0.6
2015-Jan-26 17:48 340 1 0.6
2015-Jan-26 17:31 017 0 -0.0
2015-Jan-26 17:16 009 1 -0.0
2015-Jan-26 17:01 338 1 -0.0
2015-Jan-26 16:46 333 2 0.6
2015-Jan-26 16:31 322 1 0.6
2015-Jan-26 16:16 320 0 1.1
2015-Jan-26 16:01 323 1 1.1
2015-Jan-26 15:44 319 0 1.1
2015-Jan-26 15:29 340 1 1.7
2015-Jan-26 15:14 344 0 1.7
2015-Jan-26 14:59 296 0 1.7
2015-Jan-26 14:44 295 0 1.7
2015-Jan-26 14:28 296 1.7
2015-Jan-26 14:13 296 2.2
2015-Jan-26 13:58 296 0 2.2
2015-Jan-26 13:43 304 1 2.2
2015-Jan-26 13:28 284 1 2.2
2015-Jan-26 13:13 285 0 2.2
2015-Jan-26 12:57 304 0 2.2
2015-Jan-26 12:43 325 0 2.2
2015-Jan-26 12:27 093 0 2.2
2015-Jan-26 12:12 093 2.2
2015-Jan-26 11:58 093 2.2
2015-Jan-26 11:40 093 0 2.2
2015-Jan-26 11:26 093 2.2
2015-Jan-26 11:11 093 2.2
2015-Jan-26 10:55 094 0 2.2
2015-Jan-26 10:41 094 0 1.7
2015-Jan-26 10:25 104 0 1.7
2015-Jan-26 10:11 137 0 1.7
2015-Jan-26 09:54 166 0 1.7
2015-Jan-26 09:39 147 1 1.7
2015-Jan-26 09:24 145 1 1.7
2015-Jan-26 09:08 155 2 1.7
2015-Jan-26 08:53 159 1 1.7
2015-Jan-26 08:38 148 2 1.7
2015-Jan-26 08:23 173 2 1.7
2015-Jan-26 08:08 190 2 1.7
2015-Jan-26 07:53 142 2 1.7
2015-Jan-26 07:38 156 2 1.7
2015-Jan-26 07:22 167 3 1.7
2015-Jan-26 07:07 194 2 1.7
2015-Jan-26 06:52 155 3 1.7
2015-Jan-26 05:51 175 4 1.7
2015-Jan-26 05:36 183 4 1.7
2015-Jan-26 05:20 185 4 1.1
2015-Jan-26 05:06 183 5 1.1
2015-Jan-26 04:51 182 6 1.1
2015-Jan-26 04:36 190 6 1.1
2015-Jan-26 04:19 207 6 1.1
2015-Jan-26 04:04 136 6 1.1